Weather Roundup
Issued by NWS Springfield, MO

Home | Current Version | Previous Version | Text Only | Print | Product List | Glossary On
Versions: 1 2 3 4 5 6 7 8 9 10 11 12 13 14 15 16 17 18 19 20 21 22 23 24 25 26 27 28 29 30 31 32 33 34 35 36 37 38 39 40 41 42 43 44 45 46 47 48 49 50
000
NZUS99 KSGF 181807
HRRSGF

HOURLY WEATHER
NATIONAL WEATHER SERVICE SPRINGFIELD MO
100 PM CDT FRI APR 18 2014

......SGF CWA......

CITY           SKY/WX    TMP DP  RH WIND       PRES   REMARKS
SPRINGFIELD    SUNNY     67  40  37 S7        30.25F
6HR MIN TEMP:  45; 6HR MAX TEMP:  68;

JOPLIN         SUNNY     65  42  43 S5        30.27F
6HR MIN TEMP:  37; 6HR MAX TEMP:  66;

WEST PLAINS    SUNNY     69  40  34 NE6       30.26F
6HR MIN TEMP:  44; 6HR MAX TEMP:  70;

ROLLA          SUNNY     65  42  43 VRB7      30.27F
6HR MIN TEMP:  41; 6HR MAX TEMP:  66;

OSAGE BEACH    SUNNY     64  41  42 E8        30.30F
BRANSON        MOSUNNY   66  37  34 SE6       30.26F

......SURROUNDING SGF CWA......

CITY           SKY/WX    TMP DP  RH WIND       PRES   REMARKS
CHANUTE        SUNNY     65  42  43 VRB5      30.27F
PARSONS        SUNNY     68  42  38 CALM      30.27F
COFFEYVILLE    SUNNY     67  42  40 VRB5      30.26F
EMPORIA        SUNNY     63  41  44 SE13      30.26F
GROVE OK       SUNNY     70  41  35 N5        30.26F
ROGERS AR      SUNNY     67  38  34 VRB5      30.25F
SILOAM SPRINGS SUNNY     68  39  34 SE6       30.26F
HARRISON AR    SUNNY     68  40  35 CALM      30.25F
NEAR YELLVILLE SUNNY     70  41  35 SE3       30.25F

......KANSAS AND MISSOURI......

CITY           SKY/WX    TMP DP  RH WIND       PRES   REMARKS
KANSAS CTY INT SUNNY     61  39  44 S7        30.28F
DOWNTOWN KC    SUNNY     64  41  42 VRB3      30.28F
COLUMBIA       SUNNY     64  44  48 VRB3      30.30F
SEDALIA        SUNNY     62  43  49 SE3       30.30F
ST JOSEPH      SUNNY     60  36  40 SE8       30.28F
ST LOUIS       NOT AVBL
SPIRIT OF STL  SUNNY     64  42  44 N10       30.31F
KIRKSVILLE     SUNNY     60  36  40 SE8       30.32F
WICHITA        MOSUNNY   65  44  46 SE13G20   30.23F
TOPEKA         SUNNY     63  41  44 S9        30.27F
OLATHE         SUNNY     61  41  47 VRB7      30.28F

......TENNESSEE......

CITY           SKY/WX    TMP DP  RH WIND       PRES   REMARKS
MEMPHIS        CLOUDY    68  50  52 E6        30.22F
NASHVILLE      CLOUDY    67  43  41 CALM      30.28F

......ARKANSAS.......

CITY           SKY/WX    TMP DP  RH WIND       PRES   REMARKS
FAYETTEVILLE   MOSUNNY   67  41  38 E5        30.25F
FT SMITH       SUNNY     72  40  31 E6        30.23F
LITTLE ROCK    MOSUNNY   72  45  37 E13       30.23F

......OKLAHOMA.......

CITY           SKY/WX    TMP DP  RH WIND       PRES   REMARKS
TULSA          SUNNY     69  43  38 NE6       30.24F
PONCA CITY     SUNNY     68  42  38 SE9       30.24F
MCALESTER      MOSUNNY   71  40  32 N5        30.24F
OKLAHOMA CITY  SUNNY     69  41  36 SE8       30.23F

......IOWA............

CITY           SKY/WX    TMP DP  RH WIND       PRES   REMARKS
DES MOINES     MOSUNNY   58  34  40 VRB6      30.32S
QUAD CITIES    SUNNY     55  32  41 E3        30.34F

......ILLINOIS........

CITY           SKY/WX    TMP DP  RH WIND       PRES   REMARKS
QUINCY         SUNNY     60  36  40 E5        30.32F
CHICAGO        MOSUNNY   50  33  52 NE12      30.35F



USA.gov is the U.S. government's official web portal to all federal, state and local government web resources and services.